Starlink 32584

operational
NORAD ID: 62179 Int'l Des: 2024-225 Owner: SPXS Country: US Constellation: starlink
LEOCIRCULAR

Starlink 32584について

説明を読み込み中...

リアルタイム位置

3D地球を読み込み中...

次回通過

高度履歴

Altitude vs Time

uPlot chart will show altitude changes over time

軌道要素

1 62179U 24225S 26035.03012085 .00007255 00000-0 61510-3 0 9990
2 62179 69.9988 249.2348 0002417 277.9363 82.1522 14.98335484 64839
Epoch: Feb 4, 2026 • Age: 12 hours

現在のステータス

高度 584.7 km
速度 7.57 km/s
衛星直下点 67.45°N, 46.85°E
打ち上げ日 Nov 30, 2024
運用期間 1.1 years
タイプ internet

技術仕様

分類 Payload
質量 730.00 kg
乾燥質量 700.00 kg
総質量 730.00 kg
長さ 0.30 m
直径 4.10 m
スパン 29.00 m
形状 Box + pan
製造者 SPXS
バスタイプ Starlink V2M
フェーズステータス In Orbit
所有者/国 SPXS/US

大規模コンステレーション

Loading constellations...